Regional Weather Roundup
Issued by NWS Northern Indiana

Home | Current Version | Previous Version | Graphics & Text | Print | Product List | Glossary On
Versions: 1 2 3 4 5 6 7 8 9 10 11 12 13 14 15 16 17 18 19 20 21 22 23 24 25 26 27 28 29 30 31 32 33 34 35 36 37 38 39 40 41 42 43 44 45 46 47 48 49 50
000
ASUS43 KIWX 281800
RWRIWX

KIWX WEATHER ROUNDUP
NATIONAL WEATHER SERVICE NORTHERN INDIANA
200 PM EDT TUE MAR 28 2017

NOTE: "FAIR" INDICATES FEW OR NO CLOUDS BELOW 12,000 FEET WITH NO
SIGNIFICANT WEATHER AND/OR OBSTRUCTIONS TO VISIBILITY.

* THESE STATIONS ARE NOT UNDER NWS QUALITY CONTROL. THEY ALSO MAY NOT
  REPORT WEATHER SUCH AS PRECIPITATION OR FOG.

INZ001>027-281900-
NORTHERN INDIANA

CITY           SKY/WX    TMP DP  RH WIND       PRES   REMARKS
GARY*          CLOUDY    43  37  81 N12       30.14R
KNOX*          CLOUDY    45  28  53 N8        30.10R
SOUTH BEND     CLOUDY    44  40  85 N7        30.10S
6HR MIN TEMP:  39; 6HR MAX TEMP:  45;

ELKHART*       CLOUDY    46  41  81 N6        30.08S
GOSHEN         CLOUDY    47  40  76 NW5       30.08R
6HR MIN TEMP:  44; 6HR MAX TEMP:  48; 6HR PCP: TRACE;

MONTICELLO*    CLOUDY    51  42  70 N12       30.07S
6HR MIN TEMP:  39; 6HR MAX TEMP:  52;

ANGOLA*        CLOUDY    46  34  61 VRB3      30.07R
FORT WAYNE     CLOUDY    50  44  80 N7        30.06R
6HR MIN TEMP:  48; 6HR MAX TEMP:  50;


$$
INZ028>050-281900-
CENTRAL INDIANA

CITY           SKY/WX    TMP DP  RH WIND       PRES   REMARKS
LAFAYETTE      CLOUDY    52  44  74 N12       30.08R
6HR MIN TEMP:  40; 6HR MAX TEMP:  52;

KOKOMO*        CLOUDY    52  45  77 N9        30.07S
6HR MIN TEMP:  45; 6HR MAX TEMP:  52;

MUNCIE*        CLOUDY    53  47  79 N7        30.05R
6HR MIN TEMP:  50; 6HR MAX TEMP:  53;

INDIANAPOLIS   PTSUNNY   56  46  69 N6        30.05R
6HR MIN TEMP:  50; 6HR MAX TEMP:  58;


$$
MIZ043>046-050>051-056>058-064>065-071>073-077>080-281900-
SOUTHWEST LOWER MICHIGAN

CITY           SKY/WX    TMP DP  RH WIND       PRES   REMARKS
BATTLE CREEK   CLOUDY    46  39  76 NE10      30.09R
6HR MIN TEMP:  43; 6HR MAX TEMP:  47; 6HR PCP: TRACE;

BENTON HARBOR  CLOUDY    42  36  79 N6        30.11S
6HR MIN TEMP:  38; 6HR MAX TEMP:  45;

COLDWATER*     CLOUDY    46  40  78 N8        30.08R
6HR MIN TEMP:  44; 6HR MAX TEMP:  46;

HILLSDALE*     CLOUDY    45  37  76 N7        30.06R
HOLLAND        CLOUDY    47  38  71 E6        30.12S
6HR MIN TEMP:  41; 6HR MAX TEMP:  48;

GRAND RAPIDS   CLOUDY    46  40  79 NE10      30.10S
6HR MIN TEMP:  40; 6HR MAX TEMP:  46; 6HR PCP: TRACE;

KALAMAZOO      CLOUDY    47  37  68 E6        30.09S
6HR MIN TEMP:  44; 6HR MAX TEMP:  47; 6HR PCP: TRACE;

STURGIS*       CLOUDY    47  40  79 NE8       30.07S
6HR MIN TEMP:  44; 6HR MAX TEMP:  47;

THREE RIVERS*  CLOUDY    46  40  78 N6        30.09S
6HR MIN TEMP:  43; 6HR MAX TEMP:  46;


$$
OHZ001>008-015>018-024>025-281900-
NORTHWEST OHIO

CITY           SKY/WX    TMP DP  RH WIND       PRES   REMARKS
DEFIANCE       CLOUDY    47  42  83 NE7       30.07R
6HR MIN TEMP:  46; 6HR MAX TEMP:  48;

FINDLAY        CLOUDY    49  41  74 NE9       30.04R
6HR MIN TEMP:  45; 6HR MAX TEMP:  50;

TOLEDO EXPRESS CLOUDY    49  41  74 N9        30.05R
6HR MIN TEMP:  44; 6HR MAX TEMP:  49;

TOLEDO METCALF CLOUDY    49  41  74 NE7       30.06S
6HR MIN TEMP:  43; 6HR MAX TEMP:  49;

LIMA           CLOUDY    48  45  89 NE8       30.04R
6HR MIN TEMP:  46; 6HR MAX TEMP:  49;


$$
AND FOR LAKE MICHIGAN COASTAL AND OPEN LAKE BUOY OBSERVATIONS

STATION/POSITION TEMP    WIND        PRES    VSBY  WAVE
                 AIR SEA DIR/SP/G                  HT/PER
                 (F)     (DEG/KT/KT) (MB)    (MI)  (FT/S)
CALUMET HARBOR    40     330/ 14/ 18 1019.8F
MICHIGAN CITY     39     340/ 12/ 13   N/A
BURNS HARBOR      38     350/ 10/ 12 1020.7S

$$
&&




USA.gov is the U.S. government's official web portal to all federal, state and local government web resources and services.